Location: Indian Hills
(32.9760°N, 85.9450°W)
Time: 22:35:45
(UTC+00:00)

ADEOS Rocket - Pass Details

Date: 09 December 2019
Orbit: 858 x 1307 km, 98.7° (Epoch: 22 January)

Event Time Altitude Azimuth Distance (km) Brightness Sun altitude
Exits shadow 00:48:13 27° 158° (SSE) 1,590 4.0 -26.8°
Drops below altitude 10° 00:50:52 10° 174° (S) 2,522 5.2 -27.4°
Sets 00:53:22 0° 180° (S) 3,490 6.0 -27.9°
